Regional Weather Roundup
Issued by NWS

Home | Current Version | Previous Version | Text Only | Print | Product List | Glossary Off
Versions: 1 2 3 4 5 6 7 8 9 10 11 12 13 14 15 16 17 18 19 20 21 22 23 24 25 26 27 28 29 30 31 32 33 34 35 36 37 38 39 40 41 42 43 44 45 46 47 48 49 50

000
ASUS45 KCYS 210810
RWRWY

WYOMING REGIONAL WEATHER ROUNDUP
NATIONAL WEATHER SERVICE CHEYENNE WY
100 AM MST TUE NOV 21 2017

NOTE:  "FAIR" INDICATES FEW OR NO CLOUDS BELOW 12,000 FEET
WITH NO SIGNIFICANT WEATHER AND/OR OBSTRUCTIONS TO VISIBILITY.

WYZ001-210900-
YELLOWSTONE NATIONAL PARK

CITY           SKY/WX    TMP DP  RH WIND       PRES   REMARKS
LK YELLOWSTONE   N/A     29  28  96 CALM      30.10R
W YELLOWSTONE  NOT AVBL

$$
WYZ002>013-054>058-071-098>099-210900-
NORTHERN WYOMING

CITY           SKY/WX    TMP DP  RH WIND       PRES   REMARKS
JACKSON        FLURRIES  34  33  96 SW20G25   30.07S WCI  23
CODY           FAIR      36  30  79 NE6       30.00R WCI  31
GREYBULL       CLOUDY    37  32  82 S6        29.96R WCI  32
WORLAND        FAIR      30  27  88 S9        29.99R WCI  22
SHERIDAN       LGT SNOW  30  29  96 NE10      30.08R VSB 1   WCI  21
BUFFALO        MIX PCPN  30  28  92 N14       30.04R FOG     WCI  19
GILLETTE       CLOUDY    28  26  92 N15       30.02R FOG     WCI  16
HULETT         LGT SNOW  27  23  86 NE6       30.04R WCI  20
NEWCASTLE      FAIR      37  32  81 NW10      29.92R WCI  30

$$
WYZ014>020-022>026-101>103-210900-
CENTRAL WYOMING

CITY           SKY/WX    TMP DP  RH WIND       PRES   REMARKS
BIG PINEY      FAIR      30  29  96 SW5       30.11R WCI  25
PINEDALE       LGT SNOW  32  32 100 E3        30.13R
DUBOIS         CLOUDY    34  30  86 W22G29    29.97F WCI  22
LANDER           N/A     37  26  64 SW8       29.98R WCI  31
RIVERTON       MOCLDY    38  29  70 W9        29.97R WCI  31
CASPER         FAIR      34  24  67 CALM      29.97R
DOUGLAS        MOCLDY    44  29  55 NW22G29   29.93R

$$
WYZ021-027>030-104>119-210900-
SOUTHERN WYOMING

CITY           SKY/WX    TMP DP  RH WIND       PRES   REMARKS
EVANSTON       CLOUDY    39  34  82 W14       30.21R WCI  31
KEMMERER       MIX PCPN  34  32  93 SW16      30.17R WCI  23
FORT BRIDGER   FAIR      39  37  92 W25G33    30.20R WCI  28
ROCK SPRINGS   CLOUDY    38  31  76 W17       30.14R WCI  28
DIXON          CLOUDY    38  19  47 SW3       30.16S
RAWLINS        LGT RAIN  39  31  72 W28G35    30.06R WCI  28
SARATOGA       CLOUDY    37  28  70 W22G30    30.06R WCI  27
LARAMIE        MOCLDY    36  28  73 W21G29    30.00R WCI  25
CHEYENNE       FAIR      44  27  51 W23G31    29.95R
TORRINGTON     FAIR      49  30  48 NW20      29.88R
PINE BLUFFS    FAIR      48  27  43 W32G39    29.88R

$$



USA.gov is the U.S. government's official web portal to all federal, state and local government web resources and services.